Total_Precipitation_Accumulation
2.14 2.82 3.51 4.08 4.74 5.50 6.07 5.90 5.25 4.73 4.11 3.55 2.98 2.83 2.56 2.29 2.03 1.81 1.60 1.56 1.48 1.27 1.23 1.12 1.20 1.03 1.04 1.05 1.06 1.22 1.29 1.24 1.29 1.59 1.69 1.44 1.22 1.29 1.33 1.33 1.53 1.56 1.52
2.09 2.88 3.50 3.70 3.71 3.98 4.23 3.73 3.50 3.46 3.04 2.70 2.58 2.43 2.22 1.99 1.76 1.62 1.53 1.28 1.24 1.17 1.10 1.18 1.11 1.06 1.10 1.05 1.07 1.20 1.25 1.25 1.28 1.46 1.62 1.47 1.51 1.43 1.12 1.33 1.42 1.47 1.63
2.21 2.73 2.90 2.91 2.80 2.78 2.77 2.53 2.46 2.73 2.63 2.55 2.46 2.36 2.28 2.18 1.91 1.58 1.48 1.23 1.08 1.06 1.10 1.10 1.12 1.15 0.98 1.04 1.10 1.08 1.13 1.16 1.14 1.20 1.42 1.46 1.48 1.34 1.13 1.17 1.23 1.36 1.58
2.17 2.17 1.78 1.66 1.81 1.90 1.99 2.23 2.30 2.40 2.30 2.33 2.11 1.87 1.70 1.56 1.45 1.39 1.37 1.35 1.19 1.08 1.00 1.03 1.17 1.16 1.02 1.12 0.88 0.95 1.11 1.15 1.01 1.01 1.03 1.07 1.21 1.34 1.34 1.21 1.16 1.23 1.31
1.23 1.03 0.89 0.97 1.21 1.45 1.69 2.06 2.14 2.15 2.04 1.98 1.98 1.98 1.85 1.76 1.62 1.56 1.60 1.59 1.56 1.38 1.12 1.05 1.17 1.23 1.17 1.20 1.08 1.22 1.10 1.01 0.94 0.94 1.03 1.08 1.03 0.99 1.21 1.30 1.25 1.23 1.07
0.60 0.62 0.70 0.89 1.13 1.30 1.40 1.60 1.76 1.94 1.98 2.00 2.06 2.00 1.93 1.93 1.74 1.57 1.47 1.46 1.49 1.44 1.34 1.24 1.34 1.35 1.29 1.27 1.19 1.23 1.19 1.14 1.10 0.97 0.96 1.16 1.12 1.00 1.12 1.08 1.09 1.08 0.86
0.43 0.60 0.66 0.86 0.98 1.09 1.11 1.20 1.32 1.52 1.65 1.73 1.86 1.91 1.91 1.92 1.71 1.58 1.44 1.39 1.30 1.26 1.35 1.39 1.45 1.38 1.36 1.29 1.28 1.29 1.29 1.34 1.32 1.13 0.95 0.96 1.06 1.06 1.04 1.03 0.95 0.96 0.91
0.30 0.35 0.39 0.48 0.62 0.79 0.98 1.12 1.17 1.18 1.21 1.27 1.47 1.65 1.67 1.69 1.62 1.64 1.43 1.32 1.25 1.26 1.38 1.43 1.32 1.29 1.30 1.22 1.28 1.21 1.18 1.21 1.24 1.15 1.28 1.24 1.03 1.13 1.15 1.17 1.27 1.25 1.21
0.30 0.26 0.25 0.32 0.41 0.47 0.62 0.83 0.92 0.93 0.94 1.01 1.16 1.27 1.32 1.43 1.54 1.51 1.35 1.20 1.23 1.25 1.27 1.21 1.20 1.22 1.21 1.27 1.36 1.28 1.22 1.24 1.14 1.16 1.43 1.37 1.14 1.14 1.20 1.24 1.37 1.59 1.51
0.25 0.27 0.27 0.28 0.30 0.32 0.45 0.62 0.77 0.80 0.83 0.88 0.94 0.94 1.07 1.18 1.32 1.34 1.30 1.18 1.15 1.21 1.25 1.20 1.19 1.19 1.10 1.14 1.29 1.25 1.28 1.35 1.31 1.31 1.37 1.39 1.31 1.28 1.32 1.37 1.44 1.62 1.63
0.26 0.31 0.27 0.31 0.27 0.26 0.34 0.46 0.64 0.72 0.69 0.73 0.79 0.88 0.98 1.15 1.23 1.23 1.27 1.23 1.20 1.22 1.23 1.22 1.25 1.23 1.16 1.17 1.24 1.20 1.27 1.35 1.45 1.46 1.40 1.40 1.50 1.53 1.44 1.46 1.49 1.62 1.77
0.30 0.30 0.26 0.30 0.25 0.26 0.31 0.39 0.47 0.56 0.60 0.68 0.77 0.86 0.94 1.06 1.18 1.16 1.21 1.29 1.25 1.23 1.20 1.21 1.28 1.21 1.20 1.23 1.18 1.17 1.24 1.35 1.42 1.51 1.64 1.66 1.66 1.61 1.56 1.60 1.62 1.73 1.94
0.35 0.29 0.33 0.34 0.27 0.28 0.31 0.37 0.47 0.58 0.66 0.73 0.84 0.87 0.84 0.92 1.06 1.13 1.17 1.23 1.27 1.30 1.28 1.22 1.22 1.25 1.28 1.29 1.17 1.14 1.16 1.16 1.17 1.30 1.57 1.80 2.02 1.92 1.78 1.71 1.67 1.73 1.83
0.29 0.30 0.31 0.32 0.36 0.36 0.39 0.47 0.58 0.64 0.70 0.66 0.72 0.79 0.84 0.98 1.12 1.16 1.18 1.21 1.22 1.27 1.33 1.34 1.33 1.31 1.28 1.25 1.22 1.26 1.24 1.20 1.15 1.20 1.31 1.45 1.65 1.82 1.92 1.77 1.64 1.65 1.77
0.31 0.32 0.34 0.34 0.37 0.43 0.47 0.53 0.65 0.65 0.69 0.81 0.89 0.97 1.00 1.07 1.21 1.29 1.25 1.29 1.31 1.32 1.45 1.52 1.50 1.45 1.40 1.28 1.33 1.41 1.32 1.33 1.29 1.27 1.26 1.22 1.30 1.43 1.58 1.60 1.72 1.75 1.77
0.36 0.40 0.44 0.44 0.43 0.46 0.55 0.63 0.69 0.73 0.87 1.17 1.27 1.28 1.32 1.36 1.38 1.39 1.37 1.43 1.50 1.66 1.72 1.68 1.65 1.62 1.44 1.48 1.43 1.41 1.40 1.48 1.49 1.46 1.41 1.29 1.19 1.22 1.31 1.37 1.46 1.61 1.67
0.42 0.48 0.59 0.63 0.58 0.58 0.63 0.72 0.76 0.80 0.95 1.17 1.30 1.39 1.42 1.44 1.50 1.51 1.53 1.56 1.63 1.71 1.81 1.89 1.86 1.81 1.83 1.72 1.45 1.39 1.41 1.50 1.56 1.64 1.67 1.41 1.19 1.25 1.22 1.29 1.30 1.31 1.40
0.53 0.61 0.62 0.69 0.73 0.76 0.79 0.89 1.01 1.12 1.19 1.28 1.39 1.53 1.57 1.61 1.63 1.61 1.54 1.52 1.57 1.58 1.57 1.57 1.54 1.59 1.59 1.51 1.31 1.24 1.18 1.31 1.38 1.39 1.38 1.36 1.23 1.15 1.15 1.15 1.09 1.05 1.06
0.62 0.71 0.80 0.81 0.87 0.99 1.05 1.07 1.22 1.36 1.43 1.48 1.62 1.74 1.83 1.90 1.81 1.68 1.65 1.61 1.59 1.48 1.39 1.34 1.33 1.34 1.39 1.35 1.19 1.13 1.05 1.11 1.13 1.13 1.15 1.19 1.11 1.09 0.97 0.92 0.94 0.93 0.90
0.66 0.71 0.86 1.02 1.01 1.11 1.21 1.26 1.28 1.32 1.39 1.44 1.54 1.68 1.79 1.95 2.01 1.92 1.87 1.77 1.71 1.61 1.50 1.42 1.40 1.39 1.46 1.48 1.24 1.15 1.10 1.15 1.17 1.24 1.24 1.20 1.07 0.99 0.82 0.78 0.83 0.80 0.74
0.67 0.70 0.78 0.94 1.00 1.07 1.16 1.28 1.32 1.26 1.28 1.28 1.29 1.42 1.60 1.79 1.88 1.92 1.85 1.82 1.74 1.63 1.48 1.36 1.33 1.36 1.43 1.49 1.31 1.18 1.07 1.12 1.21 1.28 1.34 1.28 1.13 0.86 0.69 0.61 0.63 0.61 0.63
0.66 0.70 0.75 0.82 0.94 1.09 1.27 1.41 1.42 1.38 1.36 1.39 1.48 1.54 1.59 1.61 1.59 1.62 1.62 1.67 1.68 1.63 1.50 1.31 1.16 1.12 1.10 1.10 1.11 0.97 0.87 0.91 1.01 1.14 1.27 1.26 1.09 0.84 0.68 0.56 0.50 0.48 0.46
0.72 0.70 0.77 0.85 0.99 1.17 1.38 1.58 1.60 1.60 1.60 1.61 1.61 1.59 1.58 1.57 1.57 1.54 1.52 1.50 1.44 1.34 1.24 1.10 1.08 1.07 1.02 0.96 0.87 0.72 0.62 0.66 0.76 0.89 1.15 1.24 1.11 0.95 0.79 0.69 0.63 0.52 0.44
0.78 0.77 0.78 0.83 0.94 1.04 1.17 1.37 1.45 1.49 1.57 1.52 1.44 1.36 1.32 1.33 1.36 1.39 1.40 1.40 1.35 1.29 1.19 1.07 1.08 1.06 1.03 0.93 0.85 0.77 0.67 0.68 0.76 0.81 0.97 1.11 1.13 1.01 0.92 0.82 0.69 0.58 0.53
0.88 0.85 0.85 0.88 0.91 0.96 1.01 1.10 1.20 1.30 1.44 1.50 1.45 1.41 1.38 1.34 1.35 1.40 1.47 1.39 1.33 1.29 1.18 1.09 1.14 1.14 1.07 1.05 1.00 0.95 0.90 0.87 0.91 0.87 0.92 1.04 1.13 1.14 1.10 1.06 0.95 0.83 0.76
0.87 0.91 0.94 0.96 0.95 0.98 1.04 1.10 1.20 1.36 1.52 1.52 1.44 1.44 1.46 1.47 1.46 1.43 1.45 1.51 1.37 1.30 1.18 1.13 1.13 1.14 1.08 0.97 0.83 0.81 0.78 0.70 0.65 0.62 0.74 0.91 1.07 1.19 1.23 1.25 1.19 1.06 0.96